CAPE
6 0 0 0 1 0 0 0 29 27 44 6 0 0 0 0 0 4 236 5 0 488 1011 1012 1744 1211 580 310 706 683 377 668 284 388 384 461 949 650 854 966 1111 902 906 876 748 586 499 493 467
0 0 0 3 0 0 0 0 11 44 65 25 0 49 48 0 500 435 186 27 135 876 1070 1438 1769 1301 652 363 600 615 533 479 472 441 631 758 933 929 967 1003 991 939 842 652 462 366 341 378 448
0 0 0 0 0 0 0 0 8 51 61 88 267 145 77 210 563 448 237 59 507 978 1226 1497 1694 1268 568 401 458 667 664 643 498 645 823 885 909 937 1005 1027 978 862 658 502 365 267 248 247 272
0 0 0 0 0 0 0 0 0 2 17 28 252 72 459 614 493 334 374 198 485 770 1279 1710 1743 1289 403 435 449 542 582 541 559 791 870 907 1009 1101 1130 1084 982 743 608 420 267 183 126 156 213
0 0 0 0 0 0 0 0 0 0 8 207 204 316 550 685 459 377 416 313 220 849 1067 1580 1540 1288 891 477 473 473 621 577 830 807 910 932 983 1146 1167 1055 903 790 608 455 328 280 321 358 419
0 0 0 0 0 0 0 0 8 0 6 146 247 224 522 530 485 359 267 221 170 974 1220 1723 1240 1142 907 555 517 553 881 790 792 999 890 951 1036 1071 1049 1014 934 805 666 567 513 543 622 707 806
0 0 0 0 0 0 0 13 68 51 28 296 184 106 639 714 374 304 96 61 231 1052 1335 1174 1178 1224 767 630 608 641 879 825 973 1134 1185 979 1017 1040 1065 1034 941 827 773 776 777 817 812 950 1193
0 0 0 0 0 0 0 7 35 63 101 199 193 147 208 780 260 177 22 27 475 787 1100 1239 947 463 404 604 718 705 789 861 932 935 978 1026 1069 1097 1087 1212 1027 1007 965 980 1051 1110 1220 1469 1475
0 0 0 0 0 0 5 6 85 72 120 190 227 224 523 348 188 121 90 16 47 279 539 671 677 476 458 414 553 703 663 627 859 979 921 1173 889 841 815 768 1102 1049 968 999 1150 1352 1797 1842 1866
0 0 0 0 0 0 1 13 67 172 117 130 188 646 389 209 70 70 70 10 0 3 95 330 433 386 421 377 454 537 540 664 769 836 898 959 876 889 690 722 898 973 1047 1163 1302 1357 1334 1295 977
0 0 0 0 0 0 13 32 13 9 28 20 156 620 407 228 157 197 95 0 0 0 29 96 231 467 494 298 353 482 400 617 849 1014 1095 1005 813 810 643 589 494 490 373 306 544 873 944 1008 1064
0 0 0 0 0 0 7 14 8 0 16 414 607 440 329 421 314 286 236 247 88 0 0 63 112 180 310 440 403 301 517 617 790 805 1023 1021 951 742 558 340 244 384 356 782 1004 973 1108 1180 1102
0 0 0 0 0 0 0 0 0 0 0 79 283 380 405 405 411 452 383 269 243 306 301 195 136 217 285 296 333 354 336 377 533 610 782 849 801 681 526 351 301 308 399 753 1000 1077 1196 1162 1152
0 0 0 0 0 0 0 0 0 0 0 2 29 89 141 250 307 427 478 396 378 345 378 403 484 398 224 296 323 275 261 253 452 500 558 751 805 659 452 322 185 107 272 758 820 1045 1153 1134 1253
0 0 0 0 0 0 0 0 0 0 0 0 29 54 83 90 74 114 116 120 130 112 242 511 550 605 625 241 307 268 212 98 277 380 526 665 725 643 619 289 194 129 277 419 894 1176 1150 1225 1675
0 0 0 0 0 0 0 0 0 0 0 1 28 50 90 95 119 59 70 87 90 103 117 123 368 519 654 678 655 424 305 143 86 134 248 326 420 534 521 254 154 119 294 508 1122 1270 1384 1663 2139
0 0 0 0 0 0 0 0 0 0 0 4 22 52 80 104 124 80 87 112 161 155 172 185 253 351 375 508 754 708 520 340 327 132 121 155 262 316 461 277 212 532 506 845 1229 1403 1744 1881 2525
0 0 0 0 0 0 0 0 0 0 0 0 14 32 40 99 156 141 206 249 253 279 274 284 313 357 367 388 480 649 740 600 476 394 391 390 315 331 511 453 669 898 916 1215 1330 1601 1824 1983 2494
0 0 0 0 0 0 0 0 0 0 0 10 42 43 46 87 163 193 184 296 301 258 306 346 389 403 402 410 419 471 605 993 885 755 766 780 802 814 1043 1080 1250 1367 1380 1734 1761 1822 1953 2198 2061
0 0 0 0 0 0 0 0 0 0 0 0 12 36 54 97 196 279 217 214 244 250 295 316 353 391 432 491 548 538 561 557 689 794 769 898 956 1082 1359 1650 1825 2135 1530 1851 2076 1928 1722 1862 1831
0 0 0 0 0 0 0 0 0 0 0 0 0 2 9 19 28 23 21 40 69 134 241 311 347 364 317 244 562 814 836 799 796 792 842 873 829 787 1204 1472 1712 1861 1615 1379 1544 1931 2125 1688 1930
0 0 0 0 0 0 0 0 0 0 0 0 0 0 0 0 0 0 0 0 9 41 83 124 200 288 350 306 213 199 367 701 709 802 832 859 880 805 512 105 377 949 1225 1245 1642 1755 1908 2067 1868
0 0 0 0 0 0 0 0 0 0 0 0 0 0 0 0 27 32 50 44 60 27 44 0 0 14 68 126 145 134 128 141 254 535 632 680 873 636 324 132 108 113 504 955 1358 1505 1867 1964 1984
0 0 0 0 0 0 0 0 0 0 0 0 0 0 0 0 0 3 15 49 65 0 0 0 0 0 0 0 0 0 30 31 91 102 112 120 340 451 534 670 464 278 127 152 577 1184 1455 1824 1992
0 0 0 0 0 0 0 0 0 0 0 0 0 0 0 0 0 0 0 0 0 0 0 0 0 0 0 0 0 0 0 0 0 0 0 0 23 42 114 219 565 641 573 501 220 966 1802 1831 1907
0 0 0 0 0 0 0 0 0 0 0 0 0 0 0 0 0 0 0 0 0 0 0 0 0 0 0 0 0 0 0 0 0 0 0 0 0 0 0 1 9 160 341 497 412 288 792 1604 1367
0 0 0 1 0 2 0 0 0 0 0 0 0 0 0 0 0 0 0 0 0 0 0 0 0 0 0 0 0 0 0 0 0 0 0 0 0 0 0 0 0 0 0 4 214 433 467 641 658
0 0 0 1 0 0 0 0 0 0 0 0 0 0 0 0 0 0 0 0 0 0 0 0 0 0 0 0 0 0 0 0 0 0 0 0 0 0 0 0 0 0 0 0 0 0 225 348 426
0 0 0 6 14 15 0 0 0 0 0 0 0 0 0 0 0 0 0 0 0 0 0 0 0 0 0 0 0 0 0 0 0 0 0 0 0 0 0 0 0 0 0 0 0 0 0 2 321
0 0 0 17 23 45 35 16 32 29 10 0 0 0 0 0 0 0 0 0 0 0 0 0 0 0 0 0 0 0 0 0 0 0 0 0 0 0 0 0 0 0 0 0 0 0 0 0 8
CIN
-662 0 0 -3 -10 0 0 -18 -35 -47 -104 -198 0 0 -3 0 0 -13 -453 -35 0 -290 -155 -139 -32 -68 -166 -209 -118 -118 -169 -83 -141 -108 -102 -66 -7 -28 -11 -9 -7 -8 -7 -8 -10 -22 -37 -46 -52
0 0 0 -45 -3 0 0 0 -34 -78 -60 -85 0 -83 -148 0 -231 -352 -431 -555 -430 -220 -161 -90 -38 -65 -148 -205 -147 -141 -148 -138 -116 -103 -58 -41 -15 -17 -15 -14 -11 -9 -11 -32 -47 -61 -65 -68 -69
0 0 0 0 0 0 0 0 -51 -79 -31 -57 -75 -90 -76 -175 -282 -328 -453 -535 -312 -186 -128 -69 -36 -60 -166 -202 -178 -146 -142 -124 -130 -79 -53 -40 -30 -28 -20 -18 -17 -21 -34 -56 -74 -86 -89 -98 -104
0 0 0 0 0 0 0 0 0 -41 -83 -152 -68 -74 -243 -321 -306 -375 -411 -425 -278 -210 -92 -34 -25 -52 -200 -200 -190 -167 -162 -162 -151 -79 -58 -55 -36 -27 -23 -22 -27 -47 -52 -79 -101 -117 -134 -136 -129
0 0 0 0 0 0 0 0 0 -9 -43 -101 -107 -54 -194 -355 -418 -412 -391 -369 -341 -206 -112 -36 -29 -46 -104 -193 -198 -194 -154 -162 -115 -92 -69 -67 -54 -35 -35 -41 -55 -63 -72 -92 -112 -111 -105 -115 -115
0 0 0 0 0 0 0 -85 -228 0 -77 -39 -136 -164 -223 -413 -396 -419 -434 -402 -384 -184 -118 -43 -78 -83 -102 -173 -185 -184 -129 -142 -135 -77 -76 -76 -68 -55 -56 -66 -74 -80 -84 -104 -108 -89 -75 -81 -94
0 0 0 0 0 0 0 -225 -148 -138 -54 -103 -155 -153 -265 -323 -455 -463 -520 -511 -392 -181 -116 -122 -126 -106 -156 -165 -178 -176 -143 -151 -117 -78 -65 -87 -82 -77 -74 -81 -99 -108 -97 -97 -99 -84 -81 -85 -83
0 0 0 0 0 0 -3 -173 -238 -141 -154 -197 -142 -103 -136 -302 -313 -496 -537 -524 -331 -260 -186 -148 -185 -273 -254 -199 -194 -188 -175 -164 -149 -136 -112 -98 -97 -93 -99 -79 -111 -111 -100 -90 -85 -86 -80 -70 -83
0 0 0 0 0 0 -28 -45 -196 -216 -165 -148 -69 -198 -288 -525 -336 -172 -152 -540 -490 -385 -307 -247 -232 -273 -272 -263 -247 -210 -218 -223 -170 -150 -148 -99 -132 -131 -137 -151 -134 -142 -143 -121 -97 -80 -51 -57 -74
0 0 0 0 0 0 -8 -41 -160 -111 -111 -95 -100 -301 -350 -223 -163 -99 -78 -40 0 -83 -388 -229 -173 -196 -191 -233 -247 -231 -233 -200 -183 -163 -155 -133 -145 -140 -164 -183 -193 -181 -167 -133 -105 -98 -112 -100 -41
0 0 0 0 0 0 -23 -15 -32 -33 -60 -75 -179 -260 -280 -271 -131 -107 -128 0 0 0 -401 -352 -250 -158 -140 -193 -187 -145 -170 -145 -120 -121 -124 -139 -165 -173 -180 -166 -175 -194 -256 -170 -131 -80 -47 -52 -45
0 0 0 0 0 0 -14 -28 -26 0 -287 -196 -249 -269 -253 -212 -170 -141 -216 -164 -232 0 0 -354 -376 -319 -270 -218 -209 -241 -191 -172 -127 -128 -110 -109 -122 -158 -179 -178 -204 -198 -168 -112 -80 -57 -62 -63 -59
0 0 0 0 0 0 0 0 0 0 0 -278 -273 -258 -229 -205 -226 -214 -196 -198 -164 -159 -82 -31 -270 -346 -319 -321 -296 -301 -297 -282 -204 -206 -170 -146 -172 -179 -184 -195 -207 -189 -164 -95 -60 -55 -43 -36 -33
0 0 0 0 0 0 0 0 0 0 0 -91 -206 -139 -260 -191 -196 -202 -172 -166 -142 -128 -138 -95 -39 -51 -284 -310 -277 -271 -307 -314 -275 -254 -237 -187 -178 -207 -215 -225 -225 -223 -182 -101 -83 -51 -50 -51 -37
0 0 0 0 0 0 0 0 0 0 0 0 -159 -76 -71 -48 -184 -152 -136 -174 -150 -119 -234 -119 -136 -99 -71 -105 -301 -312 -323 -333 -290 -260 -245 -228 -208 -212 -221 -252 -260 -261 -236 -194 -115 -64 -61 -41 -24
0 0 0 0 0 0 0 0 0 0 0 -30 -139 -83 -73 -71 -36 -198 -169 -204 -228 -188 -143 -305 -231 -166 -151 -91 -60 -29 -11 -25 -371 -345 -318 -298 -261 -235 -230 -258 -263 -235 -198 -159 -68 -36 -29 -18 -9
0 0 0 0 0 0 0 0 0 0 0 -204 -163 -115 -89 -91 -45 -55 -210 -231 -262 -208 -166 -138 -367 -297 -265 -201 -116 -94 -77 -32 -29 -316 -346 -352 -333 -311 -280 -267 -266 -218 -169 -114 -69 -42 -24 -9 -7
0 0 0 0 0 0 0 0 0 0 0 -14 -229 -159 -147 -119 -88 -167 -147 -108 -146 -109 -97 -167 -136 -170 -314 -328 -234 -159 -131 -86 -49 -50 -281 -286 -285 -288 -255 -241 -215 -171 -133 -92 -83 -70 -32 -24 -16
0 0 0 0 0 0 0 0 0 0 0 -204 -176 -186 -187 -126 -93 -62 -132 -99 -74 -110 -271 -227 -160 -70 -97 -375 -282 -248 -219 -230 -237 -262 -249 -228 -211 -201 -169 -147 -143 -144 -129 -97 -75 -54 -25 -6 -21
0 0 0 0 0 0 0 0 0 0 0 0 -223 -149 -130 -108 -82 -58 -73 -79 -73 -136 -240 -177 -199 -193 -258 -260 -322 -332 -343 -252 -168 -112 -81 -214 -180 -143 -96 -98 -87 -91 -101 -132 -99 -61 -42 -29 -47
0 0 0 0 0 0 0 0 0 0 0 0 0 -69 -165 -137 -100 -98 -159 -160 -151 -169 -172 -174 -129 -166 -136 -280 -261 -224 -230 -225 -210 -216 -192 -180 -163 -127 -107 -89 -43 -49 -114 -91 -93 -27 -19 -19 -8
0 0 0 0 0 0 0 0 0 0 0 0 0 0 0 0 0 0 0 -4 -202 -216 -216 -196 -180 -112 -95 -96 -144 -190 -286 -187 -180 -171 -161 -134 -125 -118 -110 -79 -218 -115 -85 -147 -84 -26 -6 -1 0
0 0 0 0 0 0 0 0 0 0 0 0 0 0 0 0 -190 -204 -174 -203 -196 -251 -231 -1 0 -190 -157 -117 -99 -68 -91 -108 -104 -188 -171 -137 -74 -112 -40 -118 -60 -318 -190 -123 -59 -22 0 -7 0
0 0 0 0 0 0 0 0 0 0 0 0 0 0 0 0 0 -114 -97 -123 -95 0 0 0 0 0 0 0 0 0 -85 -87 -75 -75 -71 -238 -216 -136 -102 -77 -134 -205 -110 -293 -180 -47 -5 -1 0
0 0 0 0 0 0 0 0 0 0 0 0 0 0 0 0 0 0 0 0 0 0 0 0 0 0 0 0 0 0 0 0 0 0 0 -9 -70 -95 -282 -163 -91 -112 -126 -164 -268 -106 -11 -3 0
0 0 0 0 0 0 0 0 0 0 0 0 0 0 0 0 0 0 0 0 0 0 0 0 0 0 0 0 0 0 0 0 0 0 0 0 0 0 0 -45 -177 -93 -85 -113 -146 -89 -124 -22 -31
0 0 0 -5 0 -5 0 0 0 0 0 0 0 0 0 0 0 0 0 0 0 0 0 0 0 0 0 0 0 0 0 0 0 0 0 0 0 0 0 0 0 0 0 -76 -178 -134 -133 -105 -111
0 0 -2 -5 -1 0 0 0 0 0 0 0 0 0 0 0 0 0 0 0 0 0 0 0 0 0 0 0 0 0 0 0 0 0 0 0 0 0 0 0 0 0 0 0 0 0 -235 -171 -166
0 0 0 -7 -4 -12 0 0 0 0 0 0 0 0 0 0 0 0 0 0 0 0 0 0 0 0 0 0 0 0 0 0 0 0 0 0 0 0 0 0 0 0 0 0 0 0 0 -40 -172
0 0 0 -6 -4 -3 -6 -5 -6 -5 -24 -1 0 0 0 0 0 0 0 0 0 0 0 0 0 0 0 0 0 0 0 0 0 0 0 0 0 0 0 0 0 0 0 0 0 0 0 0 -12
Wind_Speed
nan nan nan nan nan nan nan nan nan nan nan nan nan nan nan nan nan nan 5 nan nan 19 20 22 24 25 27 25 25 26 26 24 27 27 25 21 21 22 21 20 20 20 19 17 14 11 9 7 6
nan nan nan nan nan nan nan nan nan nan nan nan nan nan nan nan 3 3 4 nan 14 17 17 19 23 23 27 26 27 26 26 26 26 25 22 20 21 21 20 19 17 18 17 14 11 9 7 6 5
nan nan nan nan nan nan nan nan nan nan nan nan 8 8 nan 6 3 5 5 nan 18 18 18 17 23 24 27 27 27 27 27 26 26 23 18 18 20 20 18 16 16 16 15 12 10 8 7 8 9
nan nan nan nan nan nan nan nan nan nan nan nan 9 nan 3 1 5 6 15 20 22 17 17 17 22 23 26 26 27 26 27 27 27 22 16 18 19 17 15 14 14 14 13 11 10 9 10 11 12
nan nan nan nan nan nan nan nan nan nan nan 5 4 3 6 5 8 16 20 24 22 18 16 16 18 20 22 22 24 26 26 25 23 18 17 19 18 15 14 12 13 13 15 13 10 10 10 10 10
nan nan nan nan nan nan nan nan nan nan nan 5 4 6 8 10 9 14 16 20 20 18 15 13 16 17 17 19 21 23 23 23 20 16 16 17 16 15 13 12 11 11 12 11 10 10 11 11 12
nan nan nan nan nan nan nan nan nan nan nan 4 6 4 4 9 9 8 nan nan 18 17 15 14 17 16 17 17 19 21 21 20 15 13 15 16 14 14 13 12 11 10 10 11 10 10 10 10 12
nan nan nan nan nan nan nan nan nan nan 16 5 6 1 2 10 13 15 nan nan 19 17 14 14 15 17 16 18 21 20 19 16 16 16 16 15 14 15 14 12 13 9 8 9 8 10 10 10 10
nan nan nan nan nan nan nan nan nan nan 7 5 3 5 5 18 15 15 nan nan nan 10 10 10 13 13 14 16 18 18 18 15 14 15 16 14 13 14 14 10 9 10 9 9 10 13 12 11 14
nan nan nan nan nan nan nan nan nan 13 10 16 9 23 22 16 nan nan nan nan nan nan nan 9 7 1 2 3 8 11 11 11 11 12 13 11 10 10 10 10 10 9 9 10 10 9 10 13 6
nan nan nan nan nan nan nan nan nan nan nan nan 22 24 24 22 17 15 nan nan nan nan nan nan 12 9 7 5 4 6 7 7 6 8 7 7 6 7 8 6 5 4 5 4 5 4 6 5 6
nan nan nan nan nan nan nan nan nan nan nan 38 38 32 30 32 28 22 18 17 nan nan nan nan 7 9 8 9 8 8 9 6 8 6 6 2 2 2 2 1 0 1 3 3 3 2 1 1 3
nan nan nan nan nan nan nan nan nan nan nan nan 41 47 39 36 33 29 25 24 22 19 11 7 6 6 7 9 9 8 7 7 7 4 5 4 2 2 3 3 5 6 6 5 5 5 6 5 3
nan nan nan nan nan nan nan nan nan nan nan nan nan nan 43 41 38 35 34 30 28 26 24 10 2 5 4 5 5 8 8 8 6 4 2 2 4 5 6 7 9 12 11 10 10 11 10 8 8
nan nan nan nan nan nan nan nan nan nan nan nan nan nan nan nan nan 40 36 35 33 26 27 26 9 6 2 2 10 9 8 nan 9 9 6 4 6 5 7 10 13 14 13 12 12 11 13 12 11
nan nan nan nan nan nan nan nan nan nan nan nan nan nan nan nan 44 nan nan nan nan 34 32 28 28 26 20 10 8 10 12 12 nan 10 10 8 8 9 10 13 15 17 19 20 19 17 18 16 17
nan nan nan nan nan nan nan nan nan nan nan nan nan nan nan 36 45 nan nan 40 42 39 37 34 32 30 27 24 12 11 9 12 12 14 14 13 13 13 14 17 19 18 21 23 23 22 23 21 22
nan nan nan nan nan nan nan nan nan nan nan nan nan nan nan nan 48 42 46 44 41 39 40 39 34 35 30 27 26 18 13 14 15 17 16 17 19 19 20 21 21 24 24 24 24 23 26 26 27
nan nan nan nan nan nan nan nan nan nan nan nan nan nan nan nan 43 46 43 47 47 47 45 45 44 46 36 32 30 27 26 23 20 21 16 18 20 22 24 24 25 26 27 27 28 26 24 27 31
nan nan nan nan nan nan nan nan nan nan nan nan nan nan nan nan 47 50 50 48 49 48 51 51 45 46 43 36 35 32 26 30 33 30 35 28 22 20 25 26 27 32 32 31 29 29 29 29 35
nan nan nan nan nan nan nan nan nan nan nan nan nan nan nan nan nan nan nan nan nan 47 46 42 43 40 48 42 39 43 40 38 37 38 35 36 32 34 39 41 33 31 36 33 33 27 25 27 34
nan nan nan nan nan nan nan nan nan nan nan nan nan nan nan nan nan nan nan nan nan nan nan 47 47 48 48 45 41 43 41 42 42 38 37 37 38 40 52 49 30 19 13 27 22 18 19 28 32
nan nan nan nan nan nan nan nan nan nan nan nan nan nan nan nan nan nan nan nan nan nan nan nan nan nan nan 48 49 49 48 44 42 44 38 37 41 46 50 48 31 24 21 9 10 10 16 24 31
nan nan nan nan nan nan nan nan nan nan nan nan nan nan nan nan nan nan nan nan nan nan nan nan nan nan nan nan nan nan nan nan nan 42 41 44 44 44 45 41 33 32 28 24 14 15 16 21 21
nan nan nan nan nan nan nan nan nan nan nan nan nan nan nan nan nan nan nan nan nan nan nan nan nan nan nan nan nan nan nan nan nan nan nan nan nan nan 45 45 44 42 39 34 33 22 21 25 29
nan nan nan nan nan nan nan nan nan nan nan nan nan nan nan nan nan nan nan nan nan nan nan nan nan nan nan nan nan nan nan nan nan nan nan nan nan nan nan nan nan 42 39 38 36 33 29 31 34
nan nan nan nan nan nan nan nan nan nan nan nan nan nan nan nan nan nan nan nan nan nan nan nan nan nan nan nan nan nan nan nan nan nan nan nan nan nan nan nan nan nan nan nan 40 41 38 36 42
nan nan nan nan nan nan nan nan nan nan nan nan nan nan nan nan nan nan nan nan nan nan nan nan nan nan nan nan nan nan nan nan nan nan nan nan nan nan nan nan nan nan nan nan nan nan 48 42 51
nan nan nan nan nan nan nan nan nan nan nan nan nan nan nan nan nan nan nan nan nan nan nan nan nan nan nan nan nan nan nan nan nan nan nan nan nan nan nan nan nan nan nan nan nan nan nan nan 59
nan nan nan nan nan nan nan nan nan nan nan nan nan nan nan nan nan nan nan nan nan nan nan nan nan nan nan nan nan nan nan nan nan nan nan nan nan nan nan nan nan nan nan nan nan nan nan nan nan
Wind_Direction
nan nan nan nan nan nan nan nan nan nan nan nan nan nan nan nan nan nan 111 nan nan 347 345 346 342 338 332 329 326 325 323 328 331 334 335 341 348 343 347 351 352 353 351 350 351 352 351 354 7
nan nan nan nan nan nan nan nan nan nan nan nan nan nan nan nan 139 168 331 nan 346 334 339 342 336 337 332 327 325 324 324 328 333 339 340 348 350 350 355 359 1 359 0 357 355 1 0 19 33
nan nan nan nan nan nan nan nan nan nan nan nan 112 133 nan 135 199 303 298 nan 329 327 329 342 335 339 328 326 325 325 325 331 337 343 347 353 355 357 5 6 7 7 6 5 15 27 45 67 82
nan nan nan nan nan nan nan nan nan nan nan nan 137 nan 34 296 9 6 339 338 338 324 329 337 328 333 331 324 326 329 331 335 338 346 355 357 1 6 12 15 15 11 14 17 30 45 66 82 84
nan nan nan nan nan nan nan nan nan nan nan 174 120 36 341 319 309 322 323 327 324 327 334 331 319 328 327 327 330 331 335 338 342 354 2 0 2 14 20 23 26 32 39 39 42 51 67 76 81
nan nan nan nan nan nan nan nan nan nan nan 215 253 329 314 315 333 330 337 330 318 319 311 314 313 321 326 326 330 334 335 339 349 2 9 3 7 16 27 33 43 39 34 44 54 61 65 66 69
nan nan nan nan nan nan nan nan nan nan nan 240 311 317 263 1 331 350 nan nan 317 316 313 319 315 326 323 330 331 338 340 347 358 13 11 8 16 21 32 42 44 41 46 54 65 69 67 74 72
nan nan nan nan nan nan nan nan nan nan 188 220 97 98 317 3 353 347 nan nan 334 327 322 323 327 329 335 331 338 345 354 360 7 11 13 13 21 29 35 45 36 52 55 59 67 80 76 73 71
nan nan nan nan nan nan nan nan nan nan 193 202 260 314 300 332 349 346 nan nan nan 343 338 350 344 338 334 339 340 351 3 14 20 14 16 20 26 25 33 35 52 64 63 65 79 87 79 84 70
nan nan nan nan nan nan nan nan nan 178 226 197 180 227 225 219 nan nan nan nan nan nan nan 154 139 115 18 345 344 354 10 31 30 25 20 31 31 39 46 48 51 64 71 83 92 84 81 61 40
nan nan nan nan nan nan nan nan nan nan nan nan 237 250 230 221 213 207 nan nan nan nan nan nan 161 148 128 109 126 126 123 128 93 64 52 42 38 32 32 33 29 30 27 64 66 75 61 65 47
nan nan nan nan nan nan nan nan nan nan nan 249 266 241 233 227 215 209 191 185 nan nan nan nan 166 150 148 149 138 131 131 136 113 99 101 114 123 120 93 106 313 224 216 153 143 120 148 29 5
nan nan nan nan nan nan nan nan nan nan nan nan 255 250 237 237 216 218 211 205 196 175 175 163 162 172 154 149 150 142 151 155 142 152 140 148 161 215 229 226 214 230 224 216 199 190 202 211 243
nan nan nan nan nan nan nan nan nan nan nan nan nan nan 248 238 224 215 214 209 206 203 192 173 219 188 197 246 206 192 193 190 198 186 209 214 216 233 249 257 244 229 231 228 217 220 228 236 248
nan nan nan nan nan nan nan nan nan nan nan nan nan nan nan nan nan 218 217 213 206 208 207 204 204 191 173 194 272 247 230 nan 222 223 221 237 251 255 255 263 271 270 267 255 251 252 266 268 275
nan nan nan nan nan nan nan nan nan nan nan nan nan nan nan nan 228 nan nan nan nan 207 215 219 215 216 207 200 243 255 254 247 nan 250 254 262 260 261 259 263 265 270 267 266 268 263 266 271 275
nan nan nan nan nan nan nan nan nan nan nan nan nan nan nan 253 234 nan nan 217 214 208 212 220 229 225 219 224 249 272 288 279 276 276 275 276 278 278 283 280 282 280 276 275 273 273 276 273 273
nan nan nan nan nan nan nan nan nan nan nan nan nan nan nan nan 234 235 216 221 224 222 217 221 227 226 225 238 233 249 269 283 288 291 296 305 301 300 288 279 276 281 282 279 276 278 281 283 281
nan nan nan nan nan nan nan nan nan nan nan nan nan nan nan nan 256 235 227 222 226 229 225 229 230 212 227 233 240 251 246 258 282 279 322 311 310 307 299 288 286 285 279 279 284 279 280 281 281
nan nan nan nan nan nan nan nan nan nan nan nan nan nan nan nan 249 236 230 233 230 233 233 234 232 242 231 229 243 251 250 255 262 266 264 279 277 291 297 288 291 295 289 287 285 288 279 274 280
nan nan nan nan nan nan nan nan nan nan nan nan nan nan nan nan nan nan nan nan nan 241 239 239 242 242 256 262 243 240 248 250 261 257 263 260 263 264 265 266 269 275 279 289 274 271 295 284 282
nan nan nan nan nan nan nan nan nan nan nan nan nan nan nan nan nan nan nan nan nan nan nan 248 250 249 255 255 253 257 261 259 255 257 263 258 257 265 262 261 263 259 293 298 283 272 272 292 291
nan nan nan nan nan nan nan nan nan nan nan nan nan nan nan nan nan nan nan nan nan nan nan nan nan nan nan 259 261 266 267 270 265 269 259 260 268 264 267 275 280 268 270 271 297 269 298 297 280
nan nan nan nan nan nan nan nan nan nan nan nan nan nan nan nan nan nan nan nan nan nan nan nan nan nan nan nan nan nan nan nan nan 262 259 260 261 267 270 276 271 268 273 286 266 277 298 300 299
nan nan nan nan nan nan nan nan nan nan nan nan nan nan nan nan nan nan nan nan nan nan nan nan nan nan nan nan nan nan nan nan nan nan nan nan nan nan 265 266 272 278 281 280 279 272 289 296 295
nan nan nan nan nan nan nan nan nan nan nan nan nan nan nan nan nan nan nan nan nan nan nan nan nan nan nan nan nan nan nan nan nan nan nan nan nan nan nan nan nan 270 274 279 277 270 270 284 288
nan nan nan nan nan nan nan nan nan nan nan nan nan nan nan nan nan nan nan nan nan nan nan nan nan nan nan nan nan nan nan nan nan nan nan nan nan nan nan nan nan nan nan nan 279 280 277 279 286
nan nan nan nan nan nan nan nan nan nan nan nan nan nan nan nan nan nan nan nan nan nan nan nan nan nan nan nan nan nan nan nan nan nan nan nan nan nan nan nan nan nan nan nan nan nan 278 278 285
nan nan nan nan nan nan nan nan nan nan nan nan nan nan nan nan nan nan nan nan nan nan nan nan nan nan nan nan nan nan nan nan nan nan nan nan nan nan nan nan nan nan nan nan nan nan nan nan 285
nan nan nan nan nan nan nan nan nan nan nan nan nan nan nan nan nan nan nan nan nan nan nan nan nan nan nan nan nan nan nan nan nan nan nan nan nan nan nan nan nan nan nan nan nan nan nan nan nan